Regional Weather Roundup
Issued by NWS Green Bay, WI

Home | Current Version | Previous Version | Graphics & Text | Print | Product List | Glossary Off
Versions: 1 2 3 4 5 6 7 8 9 10 11 12 13 14 15 16 17 18 19 20 21 22 23 24 25 26 27 28 29 30 31 32 33 34 35 36 37 38 39 40 41 42 43 44 45 46 47 48 49 50

000
ASUS43 KGRB 091511
RWRGRB

NORTH-CENTRAL AND NORTHEAST WISCONSIN REGIONAL WEATHER ROUNDUP
NATIONAL WEATHER SERVICE GREEN BAY WI
900 AM CST TUE FEB 09 2016

WIZ005-009-010>012-018-019-091600-
NORTH CENTRAL WISCONSIN

CITY           SKY/WX    TMP DP  RH WIND       PRES   REMARKS
IRONWOOD       CLOUDY    10   7  85 N16G23    29.89R VSB 1   WCI  -7
MANITOWISH WTR LGT SNOW   9   4  80 N9        29.83R WCI  -4
ARBOR VITAE    CLOUDY    11   5  77 N21G26    29.81S HAZE    WCI  -7
EAGLE RIVER    LGT SNOW  10   3  72 N18G24    29.78S WCI  -8
LAND O LAKES   LGT SNOW  10   5  79 N15G24    29.79S WCI  -6
RHINELANDER    CLOUDY    11   2  67 N9G21     29.79S WCI  -2
PHILLIPS       CLOUDY     7   1  75 NW12G21   29.87R WCI  -8
ANTIGO         CLOUDY    10   4  75 N21       29.78S WCI  -9
TOMAHAWK       CLOUDY    11   5  78 N9G16     29.82S HAZE    WCI  -2
MERRILL        LGT SNOW  11   5  77 N7        29.83S WCI   0
$$

WIZ013-073-091600-
NORTHEAST WISCONSIN

CITY           SKY/WX    TMP DP  RH WIND       PRES   REMARKS
IRON MOUNTAIN  LGT SNOW  11   3  70 NW17G24   29.77R VSB 3/4 WCI  -6
MARINETTE      CLOUDY    14   5  67 NW15G22   29.78S WCI  -1
OCONTO         MOSUNNY   14   6  70 NW10      29.81S WCI   1
$$

WIZ017-030-035>037-045-091600-
CENTRAL WISCONSIN

CITY           SKY/WX    TMP DP  RH WIND       PRES   REMARKS
MEDFORD        CLOUDY     6   0  78 NW15G23   29.84S HAZE    WCI -12
WAUSAU         LGT SNOW  12   5  73 NW9       29.81S WCI   0
MOSINEE        LGT SNOW   9   5  85 NW12G18   29.84R WCI  -6
MARSHFIELD     CLOUDY     6  -2  69 NW21      29.85S HAZE    WCI -14
WISC RAPIDS    CLOUDY     8  -1  66 NW15      29.89S WCI  -9
STEVENS POINT  FLURRIES   8   2  76 NW8G16    29.85S WCI  -4
WAUPACA        MOSUNNY   15   6  68 NW10G20   29.85S WCI   2
SHAWANO        CLOUDY    17   7  66 NW12G18   29.83S WCI   4
CLINTONVILLE   FLURRIES  14   9  79 NW9       29.83S WCI   2
WAUTOMA        FLURRIES  10   3  73 NW17      29.87S WCI  -8
$$

WIZ038-039-048-051-091600-
FOX VALLEY

CITY           SKY/WX    TMP DP  RH WIND       PRES   REMARKS
NWS GREEN BAY  LGT SNOW  14   8  77 NW12      29.82R WCI   0
APPLETON       LGT SNOW  12   7  79 NW13      29.80R WCI  -3
OSHKOSH        CLOUDY    11   5  77 NW14      29.83R HAZE    WCI  -5
FOND DU LAC    LGT SNOW  12   5  73 NW17      29.83R WCI  -5
$$

WIZ022-050-052-091600-
EAST CENTRAL WISCONSIN

CITY           SKY/WX    TMP DP  RH WIND       PRES   REMARKS
EPHRAIM        FLURRIES  15   7  70 N13G25    29.74S WCI   2
STURGEON BAY   CLOUDY    14   3  62 NW17      29.79S WCI  -3
MANITOWOC      FLURRIES  15   7  70 NW18G28   29.79S WCI  -2
SHEBOYGAN      CLOUDY    13   6  74 NW13G21   29.79S WCI  -2
$$

LMZ563-521-522-541>543-091600-
LAKESHORE

STATION/POSITION TIME  TEMP    WIND        PRES    VSBY  WAVE
                       AIR SEA DIR/SP/G                  HT/PER
                 (UTC) (F)     (DEG/KT/KT) (MB)    (MI)  (FT/S)
SHEBOYGAN LKSHOR 1500   15     300/ 15/ 19 1010.3R
KEWAUNEE LKSHORE 1400   15     320/  9/ 18 1007.6R
ALGOMA MARINA    1411          330/ 16/ 23   N/A
CHAMBERS ISLAND  1400   15     310/ 18/ 25 1008.5R
MENOMINEE LKSHOR 1400   14     310/ 13     1007.6R
$$



USA.gov is the U.S. government's official web portal to all federal, state and local government web resources and services.